« Back
NWS Peachtree City, Ga » Text Product » GA Regional Weather Roundup


Printer-friendly Version
Current Version              Previous Versions:   1  2  3  4  5  6  7  8  9  

Regional Weather Roundup

522
ASUS42 KFFC 291903
RWRGA
WEATHER ROUNDUP FOR GEORGIA
NATIONAL WEATHER SERVICE PEACHTREE CITY GA
300 PM EDT FRI MAY 29 2015

NOTE: "FAIR" INDICATES FEW OR NO CLOUDS BELOW 12,000 FEET WITH NO
SIGNIFICANT WEATHER AND/OR OBSTRUCTIONS TO VISIBILITY.

* = USE WITH CAUTION. THE STATIONS MARKED WITH AN ASTERISK MAY NOT
REPORT WEATHER SUCH AS PRECIPITATION, FOG, OR THUNDER AND ARE NOT
QUALITY CONTROLLED BY NWS.

THE REMARK "TC" DENOTES TEMPERATURE READING IN DEGREES CELSIUS.

GAZ001>058-292000-
NORTH GEORGIA

CITY           SKY/WX    TMP DP  RH WIND       PRES   REMARKS
ATLANTA        PTSUNNY   82  63  52 E12G17    30.20F
ATHENS         MOSUNNY   85  65  51 E8        30.21F
CHAMBLEE       SUNNY     82  65  56 SE9G17    30.20F
PEACHTREE CITY SUNNY     83  63  50 SE12G18   30.19F
ROME           PTSUNNY   82  65  56 SE10      30.16F
WEST ATLANTA   MOSUNNY   84  64  50 SE9G18    30.19F
GAINESVILLE    MOSUNNY   79  65  62 SE9       30.24F
CARTERSVILLE   SUNNY     83  65  54 SE7       30.18F


CITY           SKY/WX    TMP DP  RH WIND       PRES   REMARKS
DALTON*        MOSUNNY   82  66  57 SE10      30.18F
LAWRENCEVILLE* PTSUNNY   82  63  51 E10       30.20F
MARIETTA       PTSUNNY   80  65  59 SE10G18   30.19F
KENNESAW*      MOSUNNY   82  66  57 SE9       30.21F
BLAIRSVILLE*     N/A     79  32  17 S12       30.24F
$$

GAZ059>098-102>109-292000-
CENTRAL GEORGIA

CITY           SKY/WX    TMP DP  RH WIND       PRES   REMARKS
AUGUSTA-BUSH   SUNNY     87  58  37 SE13G18   30.18F
AUGUSTA-DANIEL SUNNY     87  58  37 SE12      30.20F
COLUMBUS       MOSUNNY   84  61  45 SE8       30.15F
MACON          MOSUNNY   87  59  38 E10       30.17F
ROBINS AFB     MOSUNNY   85  61  44 SE9       30.17F


CITY           SKY/WX    TMP DP  RH WIND       PRES   REMARKS
LAGRANGE*      MOSUNNY   88  70  56 E6        30.17F HX  93
SYLVANIA*      SUNNY     88  64  44 SE7       30.19F
MILLEDGEVILLE* SUNNY     86  61  42 CALM      30.18F
$$

GAZ099>101-110>166-292000-
SOUTH GEORGIA

CITY           SKY/WX    TMP DP  RH WIND       PRES   REMARKS
SAVANNAH       PTSUNNY   83  64  52 E12G21    30.18F
VALDOSTA       MOSUNNY   88  60  38 E10       30.14F
ALMA           MOSUNNY   86  61  42 SE12      30.15F
FT STEWART     PTSUNNY   87  63  45 E10G17    30.15F
ALBANY         MOSUNNY   88  57  34 E12       30.16F
HUNTER AFB     SUNNY     86  67  53 E15       30.16F
MOODY AFB      PTSUNNY   88  57  34 NE5       30.13F
BRUNSWICK        N/A     82  64  54 NE12G17   30.18F


CITY           SKY/WX    TMP DP  RH WIND       PRES   REMARKS
BAINBRIDGE*    MOSUNNY   88  64  45 NE10      30.14F
MOULTRIE*      MOSUNNY   84  59  42 E5        30.15F
VIDALIA*       MOSUNNY   86  59  39 SE7       30.17F
WAYCROSS*      MOSUNNY   87  64  46 SE9       30.15F
DOUGLAS*       MOSUNNY   88  59  37 E8        30.17F
$$



USA.gov is the U.S. government's official web portal to all federal, state and local government web resources and services.